Gadsden, AL

6:50 PM CST on November 13, 2019 (GMT -0600)
Gadsden Municipal

Weather History for KGAD - June, 2019

Change the Weather History Date:

Friday, June 14, 2019

  Actual Average Record
Temperature  
Mean Temperature 67 °F -  
Max Temperature 82 °F 82 °F 99 °F (1948)
Min Temperature 52 °F 63 °F 55 °F (1933)
Cooling Degree Days 2    
Growing Degree Days 17 (Base 50)    
Moisture  
Dew Point 55 °F    
Average Humidity 66    
Maximum Humidity 100    
Minimum Humidity 38    
Precipitation  
Precipitation 0.00 in - - ()
Sea Level Pressure  
Sea Level Pressure 30.16 in    
Wind  
Wind Speed 2 mph ()    
Max Wind Speed 9 mph    
Max Gust Speed -    
Visibility 9.7 miles    
Events      
Averages and records for this station are not official NWS values.
T = Trace of Precipitation, MM = Missing Value Source: Averaged Metar Reports

Daily Weather History Graph

Daily Weather History Graph

Search for Another Location

Airport or City:

Astronomy

Jun. 14, 2019 Rise Set
Actual Time 5:32 AM CDT 7:56 PM CDT
Civil Twilight 5:03 AM CDT 8:25 PM CDT
Nautical Twilight 4:27 AM CDT 9:01 PM CDT
Astronomical Twilight 3:48 AM CDT 9:41 PM CDT
Moon 5:24 PM CDT 3:41 AM CDT
Length of Visible Light 15h 22m
Length of Day
14h 24m
Waxing Gibbous, 92% of the Moon is Illuminated
Jun 14
Waxing Gibbous
Jun 17
Full
Jun 25
Last Quarter
Jul 2
New
Jul 9
First Quarter

Hourly Weather History & Observations

Time (CDT) Temp. Heat Index Dew Point Humidity Pressure Visibility Wind Dir Wind Speed Gust Speed Precip Events Conditions
12:56 AM 55.9 °F - 55.9 °F 100% 30.14 in 10.0 mi Calm Calm - N/A   Clear
1:56 AM 55.0 °F - 55.0 °F 100% 30.14 in 10.0 mi Calm Calm - N/A   Clear
2:56 AM 54.0 °F - 54.0 °F 100% 30.14 in 10.0 mi Calm Calm - N/A   Clear
3:56 AM 53.1 °F - 53.1 °F 100% 30.16 in 10.0 mi Calm Calm - N/A   Clear
4:56 AM 52.0 °F - 52.0 °F 100% 30.17 in 10.0 mi Calm Calm - N/A   Clear
6:56 AM 55.9 °F - 55.9 °F 100% 30.21 in 10.0 mi Calm Calm - N/A   Clear
7:56 AM 62.1 °F - 57.9 °F 86% 30.22 in 10.0 mi Calm Calm - N/A   Clear
8:56 AM 69.1 °F - 55.9 °F 63% 30.24 in 10.0 mi NE 3.5 mph - N/A   Clear
9:56 AM 73.0 °F - 53.1 °F 49% 30.23 in 10.0 mi ENE 9.2 mph - N/A   Clear
10:56 AM 75.0 °F - 53.1 °F 46% 30.23 in 10.0 mi ENE 6.9 mph - N/A   Clear
11:56 AM 75.9 °F - 50.0 °F 40% 30.22 in 10.0 mi Calm Calm - N/A   Clear
12:56 PM 78.1 °F - 53.1 °F 42% 30.19 in 10.0 mi West 3.5 mph - N/A   Clear
1:56 PM 79.0 °F - 51.1 °F 38% 30.17 in 10.0 mi SW 4.6 mph - N/A   Clear
2:56 PM 81.0 °F 80.5 °F 54.0 °F 39% 30.15 in 10.0 mi Variable 5.8 mph - N/A   Clear
3:56 PM 82.0 °F 81.3 °F 54.0 °F 38% 30.13 in 4.0 mi ESE 6.9 mph - N/A   Haze
4:56 PM 81.0 °F 80.7 °F 55.0 °F 41% 30.12 in 10.0 mi Variable 3.5 mph - N/A   Clear
5:56 PM 81.0 °F 80.7 °F 55.0 °F 41% 30.11 in 10.0 mi South 3.5 mph - N/A   Clear
6:56 PM 79.0 °F - 54.0 °F 42% 30.09 in 10.0 mi South 3.5 mph - N/A   Clear
7:56 PM 71.1 °F - 62.1 °F 73% 30.10 in 10.0 mi Calm Calm - N/A   Clear
8:56 PM 66.0 °F - 62.1 °F 87% 30.12 in 10.0 mi Calm Calm - N/A   Clear